Stations météo

réclame
Mon MeteoGroup
Kirkwall, Grande-Bretagne (3017): Température de l'air & dewpoint: 05.07.2020 17:00:00 - 11.07.2020 17:00:00 (BST)Kirkwall, Grande-Bretagne (3017): Température de l'air -20cm & Température de l'air -100cm: 05.07.2020 17:00:00 - 11.07.2020 17:00:00 (BST)Kirkwall, Grande-Bretagne (3017): Vitesse du vent & gusts: 05.07.2020 17:00:00 - 11.07.2020 17:00:00 (BST)Kirkwall, Grande-Bretagne (3017): Direction du vent: 05.07.2020 17:00:00 - 11.07.2020 17:00:00 (BST)Kirkwall, Grande-Bretagne (3017): reduced air pressure: 05.07.2020 17:00:00 - 11.07.2020 17:00:00 (BST)Kirkwall, Grande-Bretagne (3017): visibility: 05.07.2020 17:00:00 - 11.07.2020 17:00:00 (BST)Kirkwall, Grande-Bretagne (3017): Ensoleillement: 05.07.2020 17:00:00 - 11.07.2020 17:00:00 (BST)Kirkwall, Grande-Bretagne (3017): Quantités de précipitations: 05.07.2020 17:00:00 - 11.07.2020 17:00:00 (BST)
Date & Time tt [°C] td [°C] tt -20cm [°C] tt -100cm [°C] ff [km/h] ff [knt] fx [km/h] fx [knt] dd ppp [hPa] vv [km] sd [min] rr [mm]
11.07.2020 17:00:00 12,7 9,0 - - 31 17 46 25 W 1021,1 40 0 0,0
11.07.2020 16:00:00 12,6 8,8 - - 31 17 - - W 1021,1 35 0 0,0
11.07.2020 15:00:00 13,2 7,1 - - 29 16 46 25 W 1020,9 23 24 0,0
11.07.2020 14:00:00 13,4 7,3 - - 35 19 50 27 W 1020,6 45 24 0,0
11.07.2020 13:00:00 13,3 7,4 - - 28 15 - - W 1020,1 45 18 0,0
11.07.2020 12:00:00 13,8 8,6 - - 28 15 50 27 W 1019,5 35 36 0,2
11.07.2020 11:00:00 13,5 7,9 - - 31 17 - - W 1019,0 40 30 0,0
11.07.2020 10:00:00 12,9 8,9 13,0 12,0 28 15 - - WNW 1018,9 45 24 0,0
11.07.2020 09:00:00 11,1 8,2 - - 21 11 - - WNW 1018,7 50 18 0,0
11.07.2020 08:00:00 12,3 7,9 - - 26 14 - - W 1018,0 40 24 0,0
11.07.2020 07:00:00 11,0 8,9 - - 16 9 - - W 1017,7 30 0 0,0
11.07.2020 06:00:00 11,3 8,7 - - 22 12 - - W 1017,7 30 0 0,0
11.07.2020 05:00:00 11,0 9,1 - - 22 12 - - W 1017,3 25 0 0,0
11.07.2020 04:00:00 10,4 9,0 - - 18 10 - - W 1017,2 24 0 0,0
11.07.2020 03:00:00 10,5 9,0 - - 16 9 - - W 1017,3 24 0 0,0
11.07.2020 02:00:00 10,4 9,1 - - 18 10 - - WSW 1017,4 19 0 0,0
11.07.2020 01:00:00 10,0 8,5 - - 16 9 - - WSW 1017,5 23 - 0,0
11.07.2020 00:00:00 9,3 7,8 - - 13 7 - - WSW 1017,6 24 0 0,0
10.07.2020 23:00:00 9,1 7,4 - - 13 7 - - W 1017,3 26 0 0,0
10.07.2020 22:00:00 11,3 8,3 - - 13 7 - - WNW 1017,0 30 0 0,0
10.07.2020 21:00:00 12,0 8,1 - - 16 9 - - WNW 1016,7 35 0 0,0
10.07.2020 20:00:00 12,7 8,2 - - 21 11 - - WNW 1016,3 40 36 0,0
10.07.2020 19:00:00 13,9 8,6 - - 18 10 - - WNW 1016,1 40 54 0,0
10.07.2020 18:00:00 14,2 7,6 - - 21 11 - - WNW 1015,5 50 36 0,0
10.07.2020 17:00:00 14,1 8,4 - - 24 13 - - WNW 1015,2 40 42 0,0
10.07.2020 16:00:00 11,9 9,2 - - 21 11 - - NW 1015,2 23 0 0,6
10.07.2020 15:00:00 13,8 8,1 - - 24 13 - - WNW 1014,8 25 24 0,0
10.07.2020 14:00:00 13,9 7,2 - - 22 12 - - WNW 1014,5 45 42 0,0
10.07.2020 13:00:00 13,9 7,3 - - 24 13 - - WNW 1014,4 50 36 0,0
10.07.2020 12:00:00 13,5 9,1 - - 21 11 - - W 1014,2 40 12 -
10.07.2020 11:00:00 11,7 8,8 - - 24 13 - - W 1014,1 45 18 -
10.07.2020 10:00:00 11,9 9,0 12,9 12,0 8 4 - - WNW 1013,8 55 6 0,2
10.07.2020 09:00:00 10,1 8,1 - - 15 8 - - WNW 1013,7 7 18 1,0
10.07.2020 08:00:00 11,6 8,6 - - 15 8 - - W 1013,4 50 42 0,0
10.07.2020 07:00:00 10,2 8,4 - - 11 6 - - WSW 1013,3 50 24 0,0
10.07.2020 06:00:00 9,0 7,9 - - 13 7 - - WSW 1013,4 29 0 0,0
10.07.2020 05:00:00 8,4 7,0 - - 13 7 - - WSW 1013,5 50 0 0,0
10.07.2020 04:00:00 8,7 7,4 - - 9 5 - - SW 1013,6 50 0 2,0
10.07.2020 03:00:00 8,4 7,1 - - 8 4 - - WSW 1014,0 35 0 0,0
10.07.2020 02:00:00 9,4 8,0 - - 5 3 - - WSW 1014,0 40 0 0,0
10.07.2020 01:00:00 9,5 7,9 - - 9 5 - - WSW 1014,3 45 - 0,0
10.07.2020 00:00:00 9,3 7,7 - - 4 2 - - WSW 1014,3 40 0 0,0
09.07.2020 23:00:00 10,6 8,2 - - 2 1 - - N 1014,2 50 0 0,0
09.07.2020 22:00:00 11,2 8,4 - - 8 4 - - NNW 1014,1 55 0 0,0
09.07.2020 21:00:00 11,9 8,3 - - 9 5 - - NNE 1014,1 60 6 0,0
09.07.2020 20:00:00 12,3 8,4 - - 11 6 - - N 1014,1 60 0 0,0
09.07.2020 19:00:00 12,1 8,4 - - 8 4 - - NE 1014,1 55 0 0,0
09.07.2020 18:00:00 12,9 8,0 - - 9 5 - - NE 1014,0 40 0 0,0
09.07.2020 17:00:00 13,3 7,7 - - 11 6 - - NE 1014,1 40 0 0,0
09.07.2020 16:00:00 13,7 8,1 - - 9 5 - - E 1014,3 45 0 0,0
09.07.2020 15:00:00 13,4 7,5 - - 8 4 - - NE 1014,3 45 0 0,0
09.07.2020 14:00:00 13,4 8,2 - - 5 3 - - E 1014,4 40 0 0,0
09.07.2020 13:00:00 13,6 8,5 - - 8 4 - - ENE 1014,5 40 0 0,0
09.07.2020 12:00:00 13,7 7,3 - - 5 3 - - W 1014,3 40 6 0,0
09.07.2020 11:00:00 13,3 7,4 - - 5 3 - - NNW 1014,2 45 12 0,0
09.07.2020 10:00:00 13,4 8,8 12,9 12,2 4 2 - - NW 1014,3 45 18 0,0
09.07.2020 09:00:00 12,3 8,2 - - 8 4 - - WSW 1014,2 11 12 0,0
09.07.2020 08:00:00 11,9 9,2 - - 5 3 - - SSW 1013,9 40 6 0,0
09.07.2020 07:00:00 10,8 9,6 - - 5 3 - - SSW 1013,7 35 0 0,0
09.07.2020 06:00:00 10,0 9,1 - - 11 6 - - S 1013,8 27 0 0,0
09.07.2020 05:00:00 9,4 8,3 - - 11 6 - - S 1013,8 30 0 0,0
09.07.2020 04:00:00 8,6 7,5 - - 11 6 - - S 1014,0 30 0 0,0
09.07.2020 03:00:00 8,4 7,0 - - 13 7 - - SSE 1014,1 40 0 0,0
09.07.2020 02:00:00 7,7 6,5 - - 9 5 - - S 1014,4 40 0 0,0
09.07.2020 01:00:00 7,4 5,7 - - 15 8 - - S 1014,7 40 - 0,0
09.07.2020 00:00:00 8,5 5,9 - - 9 5 - - SSW 1015,0 45 0 0,0
08.07.2020 23:00:00 8,5 6,1 - - 16 9 - - SSW 1015,2 45 0 0,0
08.07.2020 22:00:00 8,2 6,0 - - 16 9 - - S 1015,1 40 0 0,0
08.07.2020 21:00:00 10,4 6,5 - - 15 8 - - S 1015,2 45 36 0,0
08.07.2020 20:00:00 11,7 6,7 - - 9 5 - - S 1015,1 40 12 0,0
08.07.2020 19:00:00 11,5 6,4 - - 9 5 - - S 1015,1 40 12 0,0
08.07.2020 18:00:00 11,8 6,0 - - 4 2 - - ESE 1015,5 40 0 0,0
08.07.2020 17:00:00 11,6 6,0 - - 4 2 - - SW 1015,9 50 0 0,0
08.07.2020 16:00:00 11,8 5,5 - - 8 4 - - NNE 1016,0 40 0 0,0
08.07.2020 15:00:00 12,4 6,4 - - 11 6 - - N 1016,1 40 0 0,0
08.07.2020 14:00:00 12,3 5,6 - - 5 3 - - WSW 1016,2 45 0 0,0
08.07.2020 13:00:00 11,9 6,2 - - 11 6 - - SW 1016,2 40 0 0,0
08.07.2020 12:00:00 11,6 6,2 - - 5 3 - - WSW 1016,3 40 0 0,0
08.07.2020 11:00:00 10,9 6,0 - - 5 3 - - S 1016,2 45 0 0,0
08.07.2020 10:00:00 10,1 5,7 13,0 12,2 9 5 - - N 1016,2 45 0 0,0
08.07.2020 09:00:00 10,5 6,0 - - 11 6 - - WSW 1015,9 50 0 0,0
08.07.2020 08:00:00 10,0 6,4 - - 13 7 - - W 1015,7 40 0 0,0
08.07.2020 07:00:00 9,6 5,9 - - 4 2 - - W 1015,6 45 0 0,0
08.07.2020 06:00:00 8,9 6,3 - - 4 2 - - NE 1015,5 40 0 0,0
08.07.2020 05:00:00 8,3 6,2 - - 5 3 - - W 1015,5 35 0 0,0
08.07.2020 04:00:00 8,0 5,9 - - 5 3 - - W 1015,7 35 0 0,0
08.07.2020 03:00:00 7,5 5,2 - - 8 4 - - W 1015,8 40 0 0,0
08.07.2020 02:00:00 7,3 4,9 - - 8 4 - - W 1015,9 40 0 0,0
08.07.2020 01:00:00 6,2 3,9 - - 8 4 - - W 1016,0 35 - 0,0
08.07.2020 00:00:00 7,1 4,6 - - 8 4 - - W 1016,0 35 0 0,0
07.07.2020 23:00:00 7,3 4,7 - - 9 5 - - W 1015,9 35 0 0,0
07.07.2020 22:00:00 9,2 4,1 - - 11 6 - - NW 1015,7 35 6 0,0
07.07.2020 21:00:00 10,1 3,9 - - 13 7 - - NW 1015,6 35 24 0,0
07.07.2020 20:00:00 10,6 5,4 - - 18 10 - - NNW 1015,5 35 12 0,0
07.07.2020 19:00:00 11,9 5,7 - - 21 11 - - NNW 1015,2 35 60 0,0
07.07.2020 18:00:00 11,4 5,5 - - 18 10 - - NNW 1015,1 30 0 0,0
07.07.2020 17:00:00 11,2 6,4 - - 21 11 - - N 1015,3 35 12 0,0
07.07.2020 16:00:00 12,2 5,8 - - 21 11 - - NNW 1015,2 35 18 0,0
07.07.2020 15:00:00 10,8 4,8 - - 22 12 - - NNW 1015,1 45 18 0,0
07.07.2020 14:00:00 12,4 6,0 - - 22 12 - - NNW 1014,6 45 18 0,0
07.07.2020 13:00:00 11,6 6,1 - - 22 12 - - NNW 1014,4 45 12 0,0
07.07.2020 12:00:00 10,9 7,2 - - 28 15 - - NNW 1014,1 30 6 0,0
07.07.2020 11:00:00 10,7 6,2 - - 22 12 - - NNW 1013,8 45 12 0,0
07.07.2020 10:00:00 10,5 5,2 13,0 12,2 24 13 - - NW 1013,6 50 0 0,0
07.07.2020 09:00:00 10,1 5,7 - - 21 11 - - NW 1013,2 40 0 0,0
07.07.2020 08:00:00 9,8 6,3 - - 16 9 - - WNW 1013,1 40 0 0,0
07.07.2020 07:00:00 9,3 5,0 - - 16 9 - - NW 1013,1 30 0 0,0
07.07.2020 06:00:00 9,0 6,2 - - 15 8 - - WNW 1012,9 35 0 0,0
07.07.2020 05:00:00 8,6 6,2 - - 22 12 - - NW 1013,1 28 0 0,0
07.07.2020 04:00:00 8,7 6,1 - - 22 12 - - NW 1013,0 40 0 0,0
07.07.2020 03:00:00 9,4 6,6 - - 21 11 - - NW 1012,9 30 0 0,0
07.07.2020 02:00:00 8,9 7,0 - - 16 9 - - WNW 1012,8 26 0 0,0
07.07.2020 01:00:00 8,2 5,3 - - 21 11 - - W 1012,8 30 - 0,0
07.07.2020 00:00:00 8,7 6,1 - - 21 11 - - WNW 1012,6 30 0 0,0
06.07.2020 23:00:00 8,2 5,3 - - 18 10 - - WNW 1012,8 30 0 0,0
06.07.2020 22:00:00 9,7 7,0 - - 21 11 - - WNW 1012,5 30 0 0,0
06.07.2020 21:00:00 9,1 7,6 - - 21 11 - - WNW 1012,5 18 0 0,4
06.07.2020 20:00:00 9,4 8,1 - - 28 15 - - WNW 1012,2 45 0 0,2
06.07.2020 19:00:00 10,0 8,6 - - 29 16 65 35 WNW 1011,9 4,5 0 1,6
06.07.2020 18:00:00 10,6 8,4 - - 46 25 68 37 W 1012,0 1,6 0 0,2
06.07.2020 17:00:00 13,1 5,8 - - 46 25 72 39 W 1011,9 29 30 0,0
06.07.2020 16:00:00 12,9 6,4 - - 54 29 72 39 W 1012,5 28 24 0,0
06.07.2020 15:00:00 12,9 7,2 - - 44 24 63 34 W 1012,4 35 12 0,0
06.07.2020 14:00:00 12,1 8,2 - - 31 17 63 34 W 1012,4 28 12 0,0
06.07.2020 13:00:00 12,3 7,0 - - 34 18 52 28 WNW 1012,1 30 24 0,0
06.07.2020 12:00:00 12,4 6,8 - - 31 17 52 28 WNW 1011,8 30 30 0,0
06.07.2020 11:00:00 11,4 4,6 - - 37 20 54 29 NW 1011,4 30 30 0,0
06.07.2020 10:00:00 10,8 5,2 13,2 12,2 37 20 55 30 NW 1010,5 30 18 0,0
06.07.2020 09:00:00 11,1 6,4 - - 34 18 54 29 NW 1009,6 27 18 0,2
06.07.2020 08:00:00 10,5 6,6 - - 28 15 48 26 NW 1008,6 30 12 0,0
06.07.2020 07:00:00 10,2 5,9 - - 31 17 52 28 NW 1007,8 30 30 0,0
06.07.2020 06:00:00 10,4 7,3 - - 31 17 50 27 NNW 1006,4 27 0 0,0
06.07.2020 05:00:00 10,1 8,3 - - 34 18 52 28 NNW 1005,1 21 0 0,2
06.07.2020 04:00:00 10,9 8,9 - - 29 16 - - NNW 1003,7 20 0 0,0
06.07.2020 03:00:00 10,8 8,7 - - 31 17 46 25 NNW 1002,5 24 0 0,4
06.07.2020 02:00:00 10,8 9,2 - - 24 13 52 28 NNW 1001,5 4,4 0 0,2
06.07.2020 01:00:00 11,0 9,4 - - 28 15 - - NW 1000,2 20 - 0,2
06.07.2020 00:00:00 10,6 9,0 - - 22 12 - - NW 999,0 26 0 0,2
05.07.2020 23:00:00 10,5 8,6 - - 26 14 - - NW 998,1 24 0 0,0
05.07.2020 22:00:00 10,7 7,7 - - 24 13 - - WNW 997,3 45 0 0,0
05.07.2020 21:00:00 11,5 7,1 - - 24 13 - - WNW 996,7 45 54 0,0
05.07.2020 20:00:00 12,1 7,7 - - 22 12 - - WNW 996,0 55 42 0,0
05.07.2020 19:00:00 11,7 8,2 - - 22 12 - - WNW 995,3 60 6 0,0
05.07.2020 18:00:00 13,4 8,8 - - 24 13 - - WNW 994,8 50 24 0,0
05.07.2020 17:00:00 12,4 7,3 - - 24 13 - - WNW 994,2 65 30 0,0

tt = Température de l'air
td = dewpoint
tt -20cm = Température de l'air -20cm
tt -100cm = Température de l'air -100cm
ff = Vitesse du vent
fx = gusts
dd = Direction du vent
ppp = reduced air pressure
vv = visibility
sd = Ensoleillement
rr = Quantités de précipitations

stations d'obs. à proximité